GW4763 Weather Reports


time (UTC)temp
C
wind
direction
speed
KPH
gust
KPH
rain 1hr
cm
rain 24hr
cm
rain mn
cm
humidity
%
barometer
mb
20260506222258 22 198 8.0 25.7 0.00 0.00 0.00 15
20260506221658 22 184 11.3 30.6 0.00 0.00 0.00 16
20260506221058 22 246 16.1 38.6 0.00 0.00 0.00 15
20260506220458 22 242 11.3 29.0 0.00 0.00 0.00 16
20260506215859 22 202 11.3 25.7 0.00 0.00 0.00 15
20260506215259 22 207 11.3 30.6 0.00 0.00 0.00 17
20260506214658 22 180 11.3 35.4 0.00 0.00 0.00 15
20260506214058 22 210 1.6 30.6 0.00 0.00 0.00 17
20260506213515 22 221 17.7 27.4 0.00 0.00 0.00 16
20260506212916 22 243 6.4 30.6 0.00 0.00 0.00 15
20260506212315 22 235 4.8 27.4 0.00 0.00 0.00 16
20260506211658 22 228 8.0 32.2 0.00 0.00 0.00 17
20260506211058 22 199 11.3 33.8 0.00 0.00 0.00 16
20260506210459 22 259 17.7 30.6 0.00 0.00 0.00 15
20260506205858 22 225 9.7 27.4 0.00 0.00 0.00 16
20260506205258 21 264 12.9 35.4 0.00 0.00 0.00 16
20260506204658 22 210 4.8 30.6 0.00 0.00 0.00 15
20260506204058 22 248 17.7 35.4 0.00 0.00 0.00 15
20260506203458 22 260 11.3 37.0 0.00 0.00 0.00 13
20260506202915 22 271 12.9 37.0 0.00 0.00 0.00 15
20260506202258 22 214 11.3 48.3 0.00 0.00 0.00 16
20260506201658 22 267 6.4 32.2 0.00 0.00 0.00 17
20260506201058 21 203 9.7 35.4 0.00 0.00 0.00 16
20260506200458 22 250 6.4 33.8 0.00 0.00 0.00 18
20260506195858 22 271 6.4 29.0 0.00 0.00 0.00 18
20260506195258 22 222 8.0 27.4 0.00 0.00 0.00 16
20260506194715 21 222 8.0 33.8 0.00 0.00 0.00 17
20260506194058 21 270 8.0 33.8 0.00 0.00 0.00 19
20260506193458 21 237 16.1 33.8 0.00 0.00 0.00 17
20260506192858 21 258 19.3 33.8 0.00 0.00 0.00 16
20260506192315 21 267 16.1 35.4 0.00 0.00 0.00 16
20260506191658 21 259 19.3 38.6 0.00 0.00 0.00 16
20260506191059 21 252 12.9 38.6 0.00 0.00 0.00 15
20260506190458 21 284 14.5 32.2 0.00 0.00 0.00 15
20260506185858 21 253 9.7 41.8 0.00 0.00 0.00 18
20260506185258 21 267 12.9 29.0 0.00 0.00 0.00 16
20260506184658 21 208 12.9 30.6 0.00 0.00 0.00 18
20260506184058 21 239 9.7 40.2 0.00 0.00 0.00 17
20260506183458 21 285 12.9 33.8 0.00 0.00 0.00 15
20260506182932 21 234 11.3 27.4 0.00 0.00 0.00 18
20260506182258 20 243 11.3 20.9 0.00 0.00 0.00 18
20260506181658 20 221 8.0 37.0 0.00 0.00 0.00 22
20260506181058 20 260 14.5 35.4 0.00 0.00 0.00 18
20260506180458 20 232 6.4 30.6 0.00 0.00 0.00 21
20260506175858 20 248 9.7 33.8 0.00 0.00 0.00 19
20260506175258 20 213 14.5 27.4 0.00 0.00 0.00 19
20260506174658 20 219 8.0 27.4 0.00 0.00 0.00 23
20260506174058 20 275 9.7 35.4 0.00 0.00 0.00 20
20260506173458 19 310 14.5 32.2 0.00 0.00 0.00 22
20260506172858 19 270 12.9 33.8 0.00 0.00 0.00 22
20260506172258 20 263 8.0 27.4 0.00 0.00 0.00 21
20260506171658 19 265 11.3 29.0 0.00 0.00 0.00 23
20260506171058 18 259 8.0 33.8 0.00 0.00 0.00 22
20260506170458 18 222 9.7 35.4 0.00 0.00 0.00 25
20260506165858 18 284 11.3 24.1 0.00 0.00 0.00 23
20260506165258 18 281 6.4 25.7 0.00 0.00 0.00 26
20260506164658 18 274 11.3 37.0 0.00 0.00 0.00 25
20260506164115 17 273 14.5 32.2 0.00 0.00 0.00 25
20260506163458 17 277 8.0 37.0 0.00 0.00 0.00 27
20260506162858 17 266 11.3 30.6 0.00 0.00 0.00 27
20260506162258 17 281 14.5 37.0 0.00 0.00 0.00 25
20260506161658 17 249 9.7 32.2 0.00 0.00 0.00 28
20260506161058 17 267 17.7 37.0 0.00 0.00 0.00 27
20260506160458 16 248 12.9 37.0 0.00 0.00 0.00 27
20260506155858 16 248 6.4 24.1 0.00 0.00 0.00 30
20260506155315 16 243 11.3 30.6 0.00 0.00 0.00 30
20260506154658 16 246 6.4 25.7 0.00 0.00 0.00 33
20260506154058 16 300 6.4 25.7 0.00 0.00 0.00 34
20260506153458 16 276 12.9 33.8 0.00 0.00 0.00 32
20260506152949 15 225 9.7 30.6 0.00 0.00 0.00 34
20260506152258 15 246 11.3 29.0 0.00 0.00 0.00 36
20260506151658 15 271 6.4 30.6 0.00 0.00 0.00 37
20260506151058 15 259 6.4 24.1 0.00 0.00 0.00 40
20260506150458 15 249 9.7 20.9 0.00 0.00 0.00 39
20260506145859 15 220 4.8 19.3 0.00 0.00 0.00 38
20260506145315 14 266 6.4 17.7 0.00 0.00 0.00 41
20260506144659 14 224 6.4 20.9 0.00 0.00 0.00 43
20260506144058 14 224 4.8 14.5 0.00 0.00 0.00 43
20260506143458 13 233 6.4 19.3 0.00 0.00 0.00 44
20260506142859 13 243 6.4 22.5 0.00 0.00 0.00 45
20260506142258 13 227 4.8 19.3 0.00 0.00 0.00 46
20260506141658 13 275 4.8 12.9 0.00 0.00 0.00 47
20260506141058 12 213 4.8 12.9 0.00 0.00 0.00 46
20260506140458 12 170 0.0 9.7 0.00 0.00 0.00 48
20260506135859 12 316 4.8 14.5 0.00 0.00 0.00 46
20260506135258 12 246 4.8 11.3 0.00 0.00 0.00 48
20260506134659 12 233 4.8 8.0 0.00 0.00 0.00 49
20260506134058 11 243 1.6 12.9 0.00 0.00 0.00 49
20260506133458 11 244 1.6 12.9 0.00 0.00 0.00 50
20260506132915 11 242 3.2 11.3 0.00 0.00 0.00 51
20260506132258 10 220 6.4 12.9 0.00 0.00 0.00 54
20260506131658 10 213 3.2 11.3 0.00 0.00 0.00 55
20260506131058 9 238 3.2 12.9 0.00 0.00 0.00 59
20260506130458 8 264 4.8 6.4 0.00 0.00 0.00 63
20260506125858 7 243 3.2 6.4 0.00 0.00 0.00 68
20260506125258 6 211 1.6 11.3 0.00 0.00 0.00 72
20260506124715 2 249 4.8 6.4 0.00 0.00 0.00 88
20260506124058 1 265 1.6 6.4 0.00 0.00 0.00 89
20260506123458 1 271 0.0 6.4 0.00 0.00 0.00 89
20260506122858 0 247 0.0 4.8 0.00 0.00 0.00 89
20260506122258 0 270 1.6 6.4 0.00 0.00 0.00 89
20260506121659 0 277 1.6 6.4 0.00 0.00 0.00 89
20260506121058 0 250 0.0 4.8 0.00 0.00 0.00 88
20260506120458 0 253 0.0 4.8 0.00 0.00 0.00 87
20260506115859 1 270 0.0 6.4 0.00 0.00 0.00 87
20260506115258 1 283 0.0 6.4 0.00 0.00 0.00 86
20260506114658 1 239 3.2 4.8 0.00 0.00 0.00 86
20260506114100 1 255 0.0 6.4 0.00 0.00 0.00 86
20260506113459 1 271 3.2 4.8 0.00 0.00 0.00 85
20260506112858 1 270 0.0 4.8 0.00 0.00 0.00 84
20260506112258 1 280 4.8 4.8 0.00 0.00 0.00 85
20260506111658 2 274 0.0 6.4 0.00 0.00 0.00 83
20260506111058 2 268 4.8 4.8 0.00 0.00 0.00 82
20260506110458 2 247 0.0 6.4 0.00 0.00 0.00 85
20260506105858 1 238 0.0 4.8 0.00 0.00 0.00 90
20260506105315 1 258 0.0 6.4 0.00 0.00 0.00 89
20260506104658 1 184 0.0 4.8 0.00 0.00 0.00 89
20260506104058 1 250 0.0 4.8 0.00 0.00 0.00 89
20260506103458 1 228 0.0 4.8 0.00 0.00 0.00 88
20260506102858 1 175 0.0 1.6 0.00 0.00 0.00 87
20260506102258 1 237 0.0 4.8 0.00 0.00 0.00 86
20260506101059 2 233 0.0 4.8 0.00 0.00 0.00 84
20260506100459 2 248 0.0 3.2 0.00 0.00 0.00 83
20260506095858 2 277 0.0 3.2 0.00 0.00 0.00 83
20260506095315 2 279 0.0 4.8 0.00 0.00 0.00 83
20260506094659 2 280 0.0 6.4 0.00 0.00 0.00 84
20260506094058 1 292 1.6 4.8 0.00 0.00 0.00 84
20260506093458 1 292 0.0 3.2 0.00 0.00 0.00 85
20260506092858 1 270 0.0 4.8 0.00 0.00 0.00 83
20260506092258 2 259 0.0 6.4 0.00 0.00 0.00 82
20260506091658 2 256 0.0 4.8 0.00 0.00 0.00 81
20260506091058 2 216 0.0 4.8 0.00 0.00 0.00 80
20260506090458 1 2 0.0 4.8 0.00 0.00 0.00 82
20260506085858 1 116 1.6 4.8 0.00 0.00 0.00 84
20260506085258 2 264 0.0 3.2 0.00 0.00 0.00 80
20260506084658 2 265 0.0 6.4 0.00 0.00 0.00 80
20260506084115 2 338 0.0 4.8 0.00 0.00 0.00 80
20260506083458 1 307 0.0 4.8 0.00 0.00 0.00 81
20260506082859 1 5 0.0 4.8 0.00 0.00 0.00 84
20260506082259 1 352 0.0 0.0 0.00 0.00 0.00 83
20260506081658 1 0 0.0 3.2 0.00 0.00 0.00 81
20260506081115 2 22 0.0 0.0 0.00 0.00 0.00 78
20260506080515 2 309 0.0 0.0 0.00 0.00 0.00 74
20260506073458 3 179 0.0 4.8 0.00 0.00 0.00 74
20260506072858 3 174 0.0 3.2 0.00 0.00 0.00 70
20260506072300 3 164 1.6 6.4 0.00 0.00 0.00 67
20260506071658 3 169 0.0 6.4 0.00 0.00 0.00 69
20260506071058 2 171 0.0 4.8 0.00 0.00 0.00 77
20260506070458 3 196 1.6 4.8 0.00 0.00 0.00 74
20260506062258 3 243 0.0 3.2 0.00 0.00 0.00 77
20260506061658 3 139 0.0 3.2 0.00 0.00 0.00 75
20260506061115 3 207 0.0 0.0 0.00 0.00 0.00 73
20260506060458 4 243 0.0 0.0 0.00 0.00 0.00 70
20260506051059 10 239 1.6 8.0 0.00 0.00 0.00 37
20260506050459 10 230 1.6 8.0 0.00 0.00 0.00 37
20260506044732 11 247 3.2 11.3 0.00 0.00 0.00 36
20260506044058 11 236 3.2 11.3 0.00 0.00 0.00 35
20260506043459 11 239 3.2 11.3 0.00 0.00 0.00 35
20260506042858 11 219 4.8 12.9 0.00 0.00 0.00 35
20260506042316 11 260 3.2 12.9 0.00 0.00 0.00 36
20260506041659 11 230 4.8 12.9 0.00 0.00 0.00 37
20260506041059 11 222 4.8 12.9 0.00 0.00 0.00 37
20260506040458 11 257 3.2 12.9 0.00 0.00 0.00 38
20260506035858 11 222 4.8 11.3 0.00 0.00 0.00 38
20260506035315 11 248 1.6 11.3 0.00 0.00 0.00 38
20260506034658 12 240 3.2 14.5 0.00 0.00 0.00 39
20260506034058 11 209 4.8 9.7 0.00 0.00 0.00 40
20260506033459 12 218 1.6 16.1 0.00 0.00 0.00 39
20260506032915 12 268 4.8 14.5 0.00 0.00 0.00 37
20260506032258 12 273 6.4 14.5 0.00 0.00 0.00 36
20260506031659 12 239 6.4 19.3 0.00 0.00 0.00 37
20260506031058 12 264 6.4 16.1 0.00 0.00 0.00 37
20260506030458 12 276 6.4 19.3 0.00 0.00 0.00 37
20260506025859 12 240 4.8 11.3 0.00 0.00 0.00 37
20260506025258 12 251 6.4 11.3 0.00 0.00 0.00 37
20260506024658 12 269 6.4 9.7 0.00 0.00 0.00 37
20260506024058 13 266 3.2 14.5 0.00 0.00 0.00 39
20260506023459 13 252 6.4 14.5 0.00 0.00 0.00 38
20260506022859 13 271 4.8 12.9 0.00 0.00 0.00 38
20260506022349 13 258 8.0 12.9 0.00 0.00 0.00 37
20260506021658 13 273 6.4 14.5 0.00 0.00 0.00 36
20260506021059 14 254 4.8 14.5 0.00 0.00 0.00 35
20260506020458 14 274 6.4 14.5 0.00 0.00 0.00 35
20260506015859 14 252 6.4 14.5 0.00 0.00 0.00 36
20260506015259 14 244 6.4 14.5 0.00 0.00 0.00 36
20260506014659 15 250 6.4 16.1 0.00 0.00 0.00 35
20260506014115 15 263 6.4 17.7 0.00 0.00 0.00 35
20260506013458 15 280 4.8 19.3 0.00 0.00 0.00 35
20260506012858 15 270 6.4 20.9 0.00 0.00 0.00 34
20260506012316 15 249 6.4 19.3 0.00 0.00 0.00 34
20260506011658 16 214 4.8 25.7 0.00 0.00 0.00 33
20260506011058 16 260 9.7 25.7 0.00 0.00 0.00 32
20260506010459 16 287 14.5 25.7 0.00 0.00 0.00 32
20260506005858 16 230 11.3 22.5 0.00 0.00 0.00 32
20260506005258 16 280 12.9 29.0 0.00 0.00 0.00 32
20260506004659 17 293 16.1 29.0 0.00 0.00 0.00 31
20260506004058 17 229 12.9 25.7 0.00 0.00 0.00 31
20260506003458 17 242 6.4 27.4 0.00 0.00 0.00 31
20260506002858 17 275 6.4 29.0 0.00 0.00 0.00 32
20260506002258 17 249 12.9 33.8 0.00 0.00 0.00 32
20260506001715 17 226 11.3 32.2 0.00 0.00 0.00 32
20260506001059 17 263 8.0 32.2 0.00 0.00 0.00 34
20260506000458 17 253 16.1 38.6 0.00 0.00 0.00 32
20260505235858 17 191 6.4 33.8 0.00 0.00 0.00 32
20260505235258 17 227 6.4 29.0 0.00 0.00 0.00 34
20260505234658 17 275 16.1 32.2 0.00 0.00 0.00 33
20260505234059 16 208 12.9 38.6 0.00 0.00 0.00 34
20260505233532 17 263 14.5 35.4 0.00 0.00 0.00 35
20260505232858 17 286 12.9 41.8 0.00 0.00 0.00 35
20260505232258 17 264 11.3 45.1 0.00 0.00 0.00 34
20260505231715 17 228 12.9 35.4 0.00 0.00 0.00 34
20260505231059 16 216 8.0 37.0 0.00 0.00 0.00 31
20260505230458 16 214 14.5 33.8 0.00 0.00 0.00 28
20260505225915 16 241 19.3 37.0 0.00 0.00 0.00 29
20260505225258 17 252 11.3 35.4 0.00 0.00 0.00 30
20260505224715 17 269 12.9 41.8 0.00 0.00 0.00 29
20260505224058 17 249 17.7 37.0 0.00 0.00 0.00 29
20260505223459 17 273 17.7 43.5 0.00 0.00 0.00 29
20260505222858 17 271 12.9 30.6 0.00 0.00 0.00 31